Saint Bonnet de Bellac- Haute Vienne - France
Donnes mto: jeudi, 16/08/2012
Date Horaire Temp. E. Hum. E. P.atmo. Pluie Vent Direction Direction Ensoleilleme Solaire P. de rose Temp au vent Rafales
16/08/2012 00:00 13,8 C 84 % 1017,3 hPa 0,0 mm 0,0 km/h (0 Bft) S-SO 202 0 min 0 W/m 11,1 C 13,8 C 0,0 km/h (0 Bft)
16/08/2012 00:10 13,8 C 85 % 1017,3 hPa 0,0 mm 0,0 km/h (0 Bft) S 180 0 min 0 W/m 11,3 C 13,8 C 0,0 km/h (0 Bft)
16/08/2012 00:20 13,7 C 85 % 1017,5 hPa 0,0 mm 0,0 km/h (0 Bft) S-SO 202 0 min 0 W/m 11,2 C 13,7 C 0,0 km/h (0 Bft)
16/08/2012 00:30 13,6 C 85 % 1017,5 hPa 0,0 mm 0,0 km/h (0 Bft) S 180 0 min 0 W/m 11,1 C 13,6 C 0,0 km/h (0 Bft)
16/08/2012 00:40 13,5 C 85 % 1017,7 hPa 0,0 mm 0,0 km/h (0 Bft) S 180 0 min 0 W/m 11,0 C 13,5 C 0,0 km/h (0 Bft)
16/08/2012 00:50 13,5 C 85 % 1017,7 hPa 0,0 mm 0,7 km/h (0 Bft) S 180 0 min 0 W/m 11,0 C 13,5 C 3,2 km/h (1 Bft)
16/08/2012 01:00 13,5 C 85 % 1017,7 hPa 0,0 mm 0,0 km/h (0 Bft) SE 135 0 min 0 W/m 11,0 C 13,5 C 0,0 km/h (0 Bft)
16/08/2012 01:10 13,5 C 85 % 1017,9 hPa 0,0 mm 1,1 km/h (1 Bft) E-SE 112 0 min 0 W/m 11,0 C 13,5 C 4,0 km/h (1 Bft)
16/08/2012 01:20 13,6 C 85 % 1018,0 hPa 0,0 mm 0,0 km/h (0 Bft) SE 135 0 min 0 W/m 11,1 C 13,6 C 0,0 km/h (0 Bft)
16/08/2012 01:30 13,6 C 85 % 1018,1 hPa 0,0 mm 0,0 km/h (0 Bft) SE 135 0 min 0 W/m 11,1 C 13,6 C 0,0 km/h (0 Bft)
16/08/2012 01:40 13,6 C 85 % 1018,1 hPa 0,0 mm 0,0 km/h (0 Bft) E-SE 112 0 min 0 W/m 11,1 C 13,6 C 0,0 km/h (0 Bft)
16/08/2012 01:50 13,6 C 85 % 1018,1 hPa 0,0 mm 0,0 km/h (0 Bft) E-SE 112 0 min 0 W/m 11,1 C 13,6 C 0,0 km/h (0 Bft)
16/08/2012 02:00 13,5 C 85 % 1018,1 hPa 0,0 mm 0,4 km/h (0 Bft) E 90 0 min 0 W/m 11,0 C 13,5 C 4,0 km/h (1 Bft)
16/08/2012 02:10 13,5 C 85 % 1018,0 hPa 0,0 mm 2,5 km/h (1 Bft) E-SE 112 0 min 0 W/m 11,0 C 13,5 C 4,3 km/h (1 Bft)
16/08/2012 02:20 13,5 C 85 % 1018,0 hPa 0,0 mm 0,7 km/h (0 Bft) E-NE 67 0 min 0 W/m 11,0 C 13,5 C 4,0 km/h (1 Bft)
16/08/2012 02:30 13,4 C 85 % 1017,9 hPa 0,0 mm 0,0 km/h (0 Bft) E 90 0 min 0 W/m 10,9 C 13,4 C 2,9 km/h (1 Bft)
16/08/2012 02:40 13,4 C 86 % 1018,0 hPa 0,0 mm 0,0 km/h (0 Bft) E-SE 112 0 min 0 W/m 11,1 C 13,4 C 0,0 km/h (0 Bft)
16/08/2012 02:50 13,4 C 86 % 1018,1 hPa 0,0 mm 2,2 km/h (1 Bft) E-SE 112 0 min 0 W/m 11,1 C 13,4 C 4,3 km/h (1 Bft)
16/08/2012 03:02 13,3 C 86 % 1018,0 hPa 0,0 mm 0,0 km/h (0 Bft) E 90 0 min 0 W/m 11,0 C 13,3 C 0,0 km/h (0 Bft)
16/08/2012 03:10 13,2 C 86 % 1018,1 hPa 0,0 mm 1,1 km/h (1 Bft) E 90 0 min 0 W/m 10,9 C 13,2 C 4,0 km/h (1 Bft)
16/08/2012 03:20 13,1 C 86 % 1018,1 hPa 0,0 mm 0,0 km/h (0 Bft) E 90 0 min 0 W/m 10,8 C 13,1 C 0,0 km/h (0 Bft)
16/08/2012 03:30 12,9 C 86 % 1018,1 hPa 0,0 mm 0,0 km/h (0 Bft) E-SE 112 0 min 0 W/m 10,6 C 12,9 C 0,0 km/h (0 Bft)
16/08/2012 03:40 12,9 C 86 % 1018,1 hPa 0,0 mm 0,4 km/h (0 Bft) E-SE 112 0 min 0 W/m 10,6 C 12,9 C 0,4 km/h (0 Bft)
16/08/2012 03:50 12,9 C 87 % 1018,2 hPa 0,0 mm 0,0 km/h (0 Bft) E 90 0 min 0 W/m 10,8 C 12,9 C 0,0 km/h (0 Bft)
16/08/2012 04:00 12,9 C 87 % 1018,2 hPa 0,0 mm 0,0 km/h (0 Bft) E-SE 112 0 min 0 W/m 10,8 C 12,9 C 0,0 km/h (0 Bft)
16/08/2012 04:10 12,7 C 86 % 1018,3 hPa 0,0 mm 0,0 km/h (0 Bft) E-SE 112 0 min 0 W/m 10,4 C 12,7 C 0,0 km/h (0 Bft)
16/08/2012 04:20 12,4 C 86 % 1018,2 hPa 0,0 mm 0,0 km/h (0 Bft) E-SE 112 0 min 0 W/m 10,1 C 12,4 C 0,0 km/h (0 Bft)
16/08/2012 04:30 12,3 C 86 % 1018,2 hPa 0,0 mm 0,0 km/h (0 Bft) E 90 0 min 0 W/m 10,0 C 12,3 C 0,0 km/h (0 Bft)
16/08/2012 04:40 12,3 C 86 % 1018,2 hPa 0,0 mm 0,0 km/h (0 Bft) E 90 0 min 0 W/m 10,0 C 12,3 C 0,0 km/h (0 Bft)
16/08/2012 04:50 12,2 C 86 % 1018,2 hPa 0,0 mm 0,0 km/h (0 Bft) E 90 0 min 0 W/m 9,9 C 12,2 C 0,0 km/h (0 Bft)
16/08/2012 05:00 12,2 C 87 % 1018,1 hPa 0,0 mm 0,0 km/h (0 Bft) E 90 0 min 0 W/m 10,1 C 12,2 C 0,0 km/h (0 Bft)
16/08/2012 05:10 12,1 C 87 % 1018,1 hPa 0,0 mm 0,0 km/h (0 Bft) E 90 0 min 0 W/m 10,0 C 12,1 C 0,0 km/h (0 Bft)
16/08/2012 05:20 12,1 C 87 % 1018,1 hPa 0,0 mm 2,9 km/h (1 Bft) E-SE 112 0 min 0 W/m 10,0 C 12,1 C 4,3 km/h (1 Bft)
16/08/2012 05:30 12,1 C 87 % 1018,3 hPa 0,0 mm 0,7 km/h (0 Bft) SE 135 0 min 0 W/m 10,0 C 12,1 C 0,7 km/h (0 Bft)
16/08/2012 05:40 11,9 C 87 % 1018,0 hPa 0,0 mm 0,0 km/h (0 Bft) E 90 0 min 0 W/m 9,8 C 11,9 C 0,0 km/h (0 Bft)
16/08/2012 05:50 11,8 C 87 % 1018,2 hPa 0,0 mm 0,0 km/h (0 Bft) E 90 0 min 0 W/m 9,7 C 11,8 C 0,0 km/h (0 Bft)
16/08/2012 06:00 11,7 C 88 % 1018,2 hPa 0,0 mm 2,2 km/h (1 Bft) E-SE 112 0 min 0 W/m 9,8 C 11,7 C 4,3 km/h (1 Bft)
16/08/2012 06:10 11,8 C 88 % 1018,2 hPa 0,0 mm 0,4 km/h (0 Bft) E-SE 112 0 min 0 W/m 9,9 C 11,8 C 1,4 km/h (1 Bft)
16/08/2012 06:20 11,9 C 88 % 1018,2 hPa 0,0 mm 1,4 km/h (1 Bft) SE 135 0 min 0 W/m 10,0 C 11,9 C 4,0 km/h (1 Bft)
16/08/2012 06:30 12,1 C 89 % 1018,2 hPa 0,0 mm 4,3 km/h (1 Bft) E-SE 112 0 min 0 W/m 10,3 C 12,1 C 5,8 km/h (2 Bft)
16/08/2012 06:40 12,3 C 89 % 1018,4 hPa 0,0 mm 2,5 km/h (1 Bft) E-NE 67 0 min 0 W/m 10,5 C 12,3 C 4,0 km/h (1 Bft)
16/08/2012 06:50 12,3 C 90 % 1018,6 hPa 0,0 mm 0,0 km/h (0 Bft) E-SE 112 0 min 0 W/m 10,7 C 12,3 C 0,0 km/h (0 Bft)
16/08/2012 07:00 12,2 C 90 % 1018,8 hPa 0,0 mm 0,7 km/h (0 Bft) E 90 0 min 0 W/m 10,6 C 12,2 C 0,7 km/h (0 Bft)
16/08/2012 07:10 12,1 C 90 % 1018,8 hPa 0,0 mm 1,1 km/h (1 Bft) E 90 0 min 0 W/m 10,5 C 12,1 C 1,1 km/h (1 Bft)
16/08/2012 07:20 12,0 C 90 % 1018,8 hPa 0,0 mm 0,0 km/h (0 Bft) E 90 0 min 0 W/m 10,4 C 12,0 C 0,0 km/h (0 Bft)
16/08/2012 07:30 12,0 C 90 % 1018,8 hPa 0,0 mm 1,1 km/h (1 Bft) E-SE 112 0 min 0 W/m 10,4 C 12,0 C 3,2 km/h (1 Bft)
16/08/2012 07:40 12,1 C 90 % 1018,9 hPa 0,0 mm 1,8 km/h (1 Bft) E-SE 112 0 min 0 W/m 10,5 C 12,1 C 4,3 km/h (1 Bft)
16/08/2012 07:50 12,4 C 91 % 1019,0 hPa 0,0 mm 1,1 km/h (1 Bft) E-SE 112 0 min 0 W/m 11,0 C 12,4 C 1,1 km/h (1 Bft)
16/08/2012 08:00 12,8 C 91 % 1019,0 hPa 0,0 mm 1,1 km/h (1 Bft) E-SE 112 0 min 0 W/m 11,4 C 12,8 C 3,2 km/h (1 Bft)
16/08/2012 08:10 13,2 C 91 % 1019,0 hPa 0,0 mm 0,7 km/h (0 Bft) E-SE 112 0 min 0 W/m 11,8 C 13,2 C 4,0 km/h (1 Bft)
16/08/2012 08:20 13,4 C 91 % 1019,1 hPa 0,0 mm 1,1 km/h (1 Bft) SE 135 0 min 0 W/m 12,0 C 13,4 C 4,3 km/h (1 Bft)
16/08/2012 08:30 13,8 C 91 % 1019,1 hPa 0,0 mm 0,0 km/h (0 Bft) SE 135 0 min 0 W/m 12,4 C 13,8 C 0,0 km/h (0 Bft)
16/08/2012 08:40 14,3 C 91 % 1019,1 hPa 0,0 mm 0,0 km/h (0 Bft) E-SE 112 0 min 0 W/m 12,8 C 14,3 C 0,0 km/h (0 Bft)
16/08/2012 08:50 14,6 C 90 % 1019,2 hPa 0,0 mm 0,0 km/h (0 Bft) E-SE 112 0 min 0 W/m 13,0 C 14,6 C 0,0 km/h (0 Bft)
16/08/2012 09:00 14,8 C 88 % 1019,3 hPa 0,0 mm 0,7 km/h (0 Bft) E-SE 112 0 min 0 W/m 12,8 C 14,8 C 0,7 km/h (0 Bft)
16/08/2012 09:10 15,4 C 87 % 1019,3 hPa 0,0 mm 1,8 km/h (1 Bft) E-SE 112 0 min 0 W/m 13,2 C 15,4 C 4,3 km/h (1 Bft)
16/08/2012 09:20 16,1 C 86 % 1019,1 hPa 0,0 mm 3,6 km/h (1 Bft) E-NE 67 0 min 0 W/m 13,8 C 16,1 C 4,0 km/h (1 Bft)
16/08/2012 09:30 16,9 C 85 % 1019,1 hPa 0,0 mm 1,8 km/h (1 Bft) E 90 0 min 0 W/m 14,4 C 16,9 C 4,3 km/h (1 Bft)
16/08/2012 09:40 17,8 C 83 % 1019,1 hPa 0,0 mm 0,4 km/h (0 Bft) E-NE 67 0 min 0 W/m 14,9 C 17,8 C 0,4 km/h (0 Bft)
16/08/2012 09:50 18,6 C 80 % 1019,1 hPa 0,0 mm 2,9 km/h (1 Bft) E-SE 112 0 min 0 W/m 15,1 C 18,6 C 4,3 km/h (1 Bft)
16/08/2012 10:00 19,2 C 78 % 1019,4 hPa 0,0 mm 2,9 km/h (1 Bft) E-SE 112 0 min 0 W/m 15,3 C 19,2 C 4,0 km/h (1 Bft)
16/08/2012 10:10 20,1 C 76 % 1019,4 hPa 0,1 mm 0,7 km/h (0 Bft) E 90 0 min 0 W/m 15,7 C 20,1 C 3,6 km/h (1 Bft)
16/08/2012 10:20 21,1 C 70 % 1019,4 hPa 0,0 mm 0,0 km/h (0 Bft) SE 135 0 min 0 W/m 15,4 C 21,1 C 0,0 km/h (0 Bft)
16/08/2012 10:30 22,1 C 65 % 1019,3 hPa 0,0 mm 1,8 km/h (1 Bft) E-NE 67 0 min 0 W/m 15,2 C 22,1 C 3,6 km/h (1 Bft)
16/08/2012 10:40 22,9 C 60 % 1019,5 hPa 0,0 mm 1,4 km/h (1 Bft) E-NE 67 0 min 0 W/m 14,7 C 22,9 C 4,3 km/h (1 Bft)
16/08/2012 10:50 23,8 C 58 % 1019,6 hPa 0,0 mm 5,0 km/h (1 Bft) E 90 0 min 0 W/m 15,0 C 23,8 C 7,9 km/h (2 Bft)
16/08/2012 11:00 24,2 C 53 % 1019,6 hPa 0,0 mm 0,0 km/h (0 Bft) E-SE 112 0 min 0 W/m 14,0 C 24,2 C 0,0 km/h (0 Bft)
16/08/2012 11:10 24,6 C 48 % 1019,6 hPa 0,0 mm 2,5 km/h (1 Bft) S 180 0 min 0 W/m 12,8 C 24,6 C 3,6 km/h (1 Bft)
16/08/2012 11:20 24,8 C 50 % 1019,6 hPa 0,0 mm 1,8 km/h (1 Bft) NE 45 0 min 0 W/m 13,7 C 24,8 C 4,0 km/h (1 Bft)
16/08/2012 11:30 24,9 C 47 % 1019,5 hPa 0,0 mm 0,7 km/h (0 Bft) E-NE 67 0 min 0 W/m 12,8 C 24,9 C 0,7 km/h (0 Bft)
16/08/2012 11:40 25,3 C 47 % 1019,5 hPa 0,0 mm 1,1 km/h (1 Bft) E 90 0 min 0 W/m 13,2 C 25,3 C 3,6 km/h (1 Bft)
16/08/2012 11:50 25,4 C 45 % 1019,5 hPa 0,0 mm 5,4 km/h (2 Bft) NE 45 0 min 0 W/m 12,6 C 25,4 C 10,1 km/h (2 Bft)
16/08/2012 12:00 25,7 C 44 % 1019,4 hPa 0,0 mm 5,0 km/h (1 Bft) E-NE 67 0 min 0 W/m 12,5 C 25,7 C 9,0 km/h (2 Bft)
16/08/2012 12:10 26,2 C 43 % 1019,3 hPa 0,0 mm 0,0 km/h (0 Bft) NE 45 0 min 0 W/m 12,6 C 26,2 C 0,0 km/h (0 Bft)
16/08/2012 12:20 16,3 C 73 % 1017,3 hPa 0,0 mm 0,0 km/h (0 Bft) S-SO 202 0 min 0 W/m 11,4 C 16,3 C 0,0 km/h (0 Bft)
16/08/2012 12:30 26,6 C 42 % 1019,1 hPa 0,0 mm 2,2 km/h (1 Bft) S-SE 157 0 min 0 W/m 12,6 C 26,6 C 4,3 km/h (1 Bft)
16/08/2012 12:40 26,7 C 40 % 1019,0 hPa 0,0 mm 3,6 km/h (1 Bft) E-SE 112 0 min 0 W/m 12,0 C 26,7 C 3,6 km/h (1 Bft)
16/08/2012 12:50 26,8 C 39 % 1018,8 hPa 0,0 mm 7,9 km/h (2 Bft) E-SE 112 0 min 0 W/m 11,7 C 26,8 C 7,9 km/h (2 Bft)
16/08/2012 13:00 26,6 C 40 % 1018,7 hPa 0,0 mm 4,3 km/h (1 Bft) N 360 0 min 0 W/m 11,9 C 26,6 C 4,3 km/h (1 Bft)
16/08/2012 13:10 26,8 C 41 % 1018,6 hPa 0,0 mm 3,2 km/h (1 Bft) NE 45 0 min 0 W/m 12,4 C 26,8 C 6,1 km/h (2 Bft)
16/08/2012 13:20 26,9 C 40 % 1018,5 hPa 0,0 mm 10,4 km/h (2 Bft) E 90 0 min 0 W/m 12,1 C 26,9 C 11,9 km/h (2 Bft)
16/08/2012 13:30 26,9 C 40 % 1018,5 hPa 0,0 mm 5,4 km/h (2 Bft) SE 135 0 min 0 W/m 12,1 C 26,9 C 7,9 km/h (2 Bft)
16/08/2012 13:40 27,0 C 40 % 1018,3 hPa 0,0 mm 4,0 km/h (1 Bft) E-NE 67 0 min 0 W/m 12,2 C 27,0 C 7,2 km/h (2 Bft)
16/08/2012 13:50 27,2 C 40 % 1018,2 hPa 0,0 mm 3,6 km/h (1 Bft) E 90 0 min 0 W/m 12,4 C 27,2 C 7,9 km/h (2 Bft)
16/08/2012 14:00 26,8 C 40 % 1018,3 hPa 0,0 mm 4,0 km/h (1 Bft) E-NE 67 0 min 0 W/m 12,1 C 26,8 C 7,6 km/h (2 Bft)
16/08/2012 14:10 26,9 C 40 % 1018,1 hPa 0,0 mm 3,2 km/h (1 Bft) E-SE 112 0 min 0 W/m 12,1 C 26,9 C 3,2 km/h (1 Bft)
16/08/2012 14:20 27,2 C 40 % 1017,9 hPa 0,0 mm 1,8 km/h (1 Bft) N-NE 22 0 min 0 W/m 12,4 C 27,2 C 4,0 km/h (1 Bft)
16/08/2012 14:30 27,5 C 39 % 1018,0 hPa 0,0 mm 2,5 km/h (1 Bft) E-SE 112 0 min 0 W/m 12,3 C 27,5 C 6,1 km/h (2 Bft)
16/08/2012 14:40 27,4 C 39 % 1018,0 hPa 0,0 mm 7,6 km/h (2 Bft) SE 135 0 min 0 W/m 12,2 C 27,4 C 11,5 km/h (2 Bft)
16/08/2012 14:50 27,4 C 39 % 1018,0 hPa 0,0 mm 8,3 km/h (2 Bft) E-NE 67 0 min 0 W/m 12,2 C 27,4 C 10,1 km/h (2 Bft)
16/08/2012 15:00 27,4 C 39 % 1017,9 hPa 0,0 mm 2,9 km/h (1 Bft) S-SO 202 0 min 0 W/m 12,2 C 27,4 C 4,0 km/h (1 Bft)
16/08/2012 15:10 27,8 C 40 % 1017,8 hPa 0,0 mm 4,3 km/h (1 Bft) E-NE 67 0 min 0 W/m 12,9 C 27,8 C 7,9 km/h (2 Bft)
16/08/2012 15:20 27,9 C 39 % 1017,7 hPa 0,0 mm 2,5 km/h (1 Bft) E-NE 67 0 min 0 W/m 12,6 C 27,9 C 6,5 km/h (2 Bft)
16/08/2012 15:30 27,9 C 39 % 1017,7 hPa 0,0 mm 2,2 km/h (1 Bft) E-SE 112 0 min 0 W/m 12,6 C 27,9 C 4,3 km/h (1 Bft)
16/08/2012 15:40 28,0 C 39 % 1017,5 hPa 0,0 mm 1,8 km/h (1 Bft) E-SE 112 0 min 0 W/m 12,7 C 28,0 C 4,3 km/h (1 Bft)
16/08/2012 15:50 15,6 C 80 % 1016,4 hPa 0,0 mm 0,0 km/h (0 Bft) SE 135 0 min 0 W/m 12,2 C 15,6 C 0,0 km/h (0 Bft)
16/08/2012 16:00 28,6 C 37 % 1017,3 hPa 0,0 mm 0,7 km/h (0 Bft) S-SE 157 0 min 0 W/m 12,5 C 28,6 C 4,3 km/h (1 Bft)
16/08/2012 16:10 28,6 C 37 % 1017,1 hPa 0,0 mm 4,0 km/h (1 Bft) O-SO 247 0 min 0 W/m 12,5 C 28,6 C 12,2 km/h (2 Bft)
16/08/2012 16:20 28,9 C 36 % 1017,0 hPa 0,0 mm 1,8 km/h (1 Bft) E-SE 112 0 min 0 W/m 12,3 C 28,9 C 3,6 km/h (1 Bft)
16/08/2012 16:30 29,1 C 36 % 1016,9 hPa 0,0 mm 2,9 km/h (1 Bft) E-SE 112 0 min 0 W/m 12,5 C 29,1 C 4,0 km/h (1 Bft)
16/08/2012 16:40 29,2 C 36 % 1016,8 hPa 0,0 mm 3,6 km/h (1 Bft) E-SE 112 0 min 0 W/m 12,6 C 29,2 C 9,4 km/h (2 Bft)
16/08/2012 16:50 29,2 C 36 % 1016,7 hPa 0,0 mm 1,8 km/h (1 Bft) SO 225 0 min 0 W/m 12,6 C 29,2 C 4,3 km/h (1 Bft)
16/08/2012 17:00 29,2 C 36 % 1016,5 hPa 0,0 mm 6,8 km/h (2 Bft) S 180 0 min 0 W/m 12,6 C 29,2 C 10,4 km/h (2 Bft)
16/08/2012 17:10 29,2 C 35 % 1016,4 hPa 0,0 mm 4,0 km/h (1 Bft) E-SE 112 0 min 0 W/m 12,1 C 29,2 C 7,6 km/h (2 Bft)
16/08/2012 17:20 29,0 C 36 % 1016,4 hPa 0,0 mm 3,6 km/h (1 Bft) NE 45 0 min 0 W/m 12,4 C 29,0 C 7,2 km/h (2 Bft)
16/08/2012 17:30 29,1 C 35 % 1016,3 hPa 0,0 mm 1,8 km/h (1 Bft) SE 135 0 min 0 W/m 12,1 C 29,1 C 1,8 km/h (1 Bft)
16/08/2012 17:40 29,1 C 35 % 1016,2 hPa 0,0 mm 0,7 km/h (0 Bft) SO 225 0 min 0 W/m 12,1 C 29,1 C 0,7 km/h (0 Bft)
16/08/2012 17:50 29,3 C 35 % 1016,1 hPa 0,0 mm 3,2 km/h (1 Bft) SE 135 0 min 0 W/m 12,2 C 29,3 C 4,7 km/h (1 Bft)
16/08/2012 18:00 29,2 C 34 % 1016,0 hPa 0,0 mm 0,0 km/h (0 Bft) E-SE 112 0 min 0 W/m 11,7 C 29,2 C 0,0 km/h (0 Bft)
16/08/2012 18:10 29,4 C 34 % 1016,0 hPa 0,0 mm 6,5 km/h (2 Bft) S 180 0 min 0 W/m 11,9 C 29,4 C 9,4 km/h (2 Bft)
16/08/2012 18:20 29,6 C 33 % 1015,9 hPa 0,0 mm 4,7 km/h (1 Bft) SO 225 0 min 0 W/m 11,6 C 29,6 C 4,7 km/h (1 Bft)
16/08/2012 18:30 29,5 C 33 % 1015,9 hPa 0,0 mm 3,2 km/h (1 Bft) S 180 0 min 0 W/m 11,5 C 29,5 C 3,2 km/h (1 Bft)
16/08/2012 18:40 29,6 C 33 % 1015,9 hPa 0,0 mm 0,0 km/h (0 Bft) S 180 0 min 0 W/m 11,6 C 29,6 C 0,0 km/h (0 Bft)
16/08/2012 18:50 29,8 C 34 % 1015,9 hPa 0,0 mm 4,3 km/h (1 Bft) S 180 0 min 0 W/m 12,2 C 29,8 C 6,8 km/h (2 Bft)
16/08/2012 19:00 29,6 C 34 % 1015,9 hPa 0,0 mm 2,9 km/h (1 Bft) S 180 0 min 0 W/m 12,1 C 29,6 C 4,0 km/h (1 Bft)
16/08/2012 19:10 29,4 C 34 % 1015,8 hPa 0,0 mm 4,3 km/h (1 Bft) S-SO 202 0 min 0 W/m 11,9 C 29,4 C 7,2 km/h (2 Bft)
16/08/2012 19:20 29,4 C 34 % 1015,8 hPa 0,0 mm 1,1 km/h (1 Bft) SO 225 0 min 0 W/m 11,9 C 29,4 C 4,0 km/h (1 Bft)
16/08/2012 19:30 29,4 C 34 % 1015,8 hPa 0,0 mm 2,2 km/h (1 Bft) S-SO 202 0 min 0 W/m 11,9 C 29,4 C 4,0 km/h (1 Bft)
16/08/2012 19:40 29,2 C 35 % 1015,8 hPa 0,0 mm 0,0 km/h (0 Bft) SO 225 0 min 0 W/m 12,1 C 29,2 C 0,0 km/h (0 Bft)
16/08/2012 19:50 29,1 C 35 % 1015,9 hPa 0,0 mm 0,0 km/h (0 Bft) SO 225 0 min 0 W/m 12,1 C 29,1 C 0,0 km/h (0 Bft)
16/08/2012 20:00 28,9 C 36 % 1015,8 hPa 0,0 mm 0,0 km/h (0 Bft) SO 225 0 min 0 W/m 12,3 C 28,9 C 0,0 km/h (0 Bft)
16/08/2012 20:10 28,3 C 37 % 1015,9 hPa 0,0 mm 0,0 km/h (0 Bft) SO 225 0 min 0 W/m 12,2 C 28,3 C 0,0 km/h (0 Bft)
16/08/2012 20:20 27,6 C 38 % 1015,9 hPa 0,0 mm 0,0 km/h (0 Bft) SO 225 0 min 0 W/m 12,0 C 27,6 C 0,0 km/h (0 Bft)
16/08/2012 20:30 26,9 C 39 % 1016,0 hPa 0,0 mm 0,0 km/h (0 Bft) SO 225 0 min 0 W/m 11,8 C 26,9 C 0,0 km/h (0 Bft)
16/08/2012 20:40 26,3 C 41 % 1016,1 hPa 0,0 mm 0,0 km/h (0 Bft) SO 225 0 min 0 W/m 12,0 C 26,3 C 0,0 km/h (0 Bft)
16/08/2012 20:50 25,5 C 42 % 1016,1 hPa 0,0 mm 0,0 km/h (0 Bft) SO 225 0 min 0 W/m 11,6 C 25,5 C 0,0 km/h (0 Bft)
16/08/2012 21:00 24,8 C 44 % 1016,0 hPa 0,0 mm 0,0 km/h (0 Bft) SO 225 0 min 0 W/m 11,7 C 24,8 C 0,0 km/h (0 Bft)
16/08/2012 21:10 24,1 C 45 % 1016,1 hPa 0,0 mm 0,0 km/h (0 Bft) SO 225 0 min 0 W/m 11,4 C 24,1 C 0,0 km/h (0 Bft)
16/08/2012 21:20 23,4 C 46 % 1016,2 hPa 0,0 mm 0,0 km/h (0 Bft) SO 225 0 min 0 W/m 11,1 C 23,4 C 0,0 km/h (0 Bft)
16/08/2012 21:30 22,8 C 47 % 1016,3 hPa 0,0 mm 0,0 km/h (0 Bft) SO 225 0 min 0 W/m 10,9 C 22,8 C 0,0 km/h (0 Bft)
16/08/2012 21:40 22,2 C 48 % 1016,5 hPa 0,0 mm 0,0 km/h (0 Bft) SO 225 0 min 0 W/m 10,7 C 22,2 C 0,0 km/h (0 Bft)
16/08/2012 21:50 21,8 C 49 % 1016,6 hPa 0,0 mm 0,0 km/h (0 Bft) S-SE 157 0 min 0 W/m 10,6 C 21,8 C 0,0 km/h (0 Bft)
16/08/2012 22:00 21,5 C 51 % 1016,6 hPa 0,0 mm 0,0 km/h (0 Bft) E 90 0 min 0 W/m 10,9 C 21,5 C 0,0 km/h (0 Bft)
16/08/2012 22:10 21,3 C 52 % 1016,5 hPa 0,0 mm 0,0 km/h (0 Bft) E 90 0 min 0 W/m 11,0 C 21,3 C 0,0 km/h (0 Bft)
16/08/2012 22:20 21,0 C 52 % 1016,5 hPa 0,0 mm 0,0 km/h (0 Bft) E 90 0 min 0 W/m 10,8 C 21,0 C 0,0 km/h (0 Bft)
16/08/2012 22:30 20,8 C 54 % 1016,5 hPa 0,0 mm 0,0 km/h (0 Bft) E-SE 112 0 min 0 W/m 11,1 C 20,8 C 0,0 km/h (0 Bft)
16/08/2012 22:40 20,7 C 55 % 1016,5 hPa 0,0 mm 1,4 km/h (1 Bft) E-SE 112 0 min 0 W/m 11,3 C 20,7 C 3,6 km/h (1 Bft)
16/08/2012 22:50 20,6 C 56 % 1016,5 hPa 0,0 mm 0,4 km/h (0 Bft) E-SE 112 0 min 0 W/m 11,5 C 20,6 C 3,6 km/h (1 Bft)
16/08/2012 23:00 20,5 C 57 % 1016,5 hPa 0,0 mm 0,0 km/h (0 Bft) E-SE 112 0 min 0 W/m 11,7 C 20,5 C 0,0 km/h (0 Bft)
16/08/2012 23:10 20,3 C 59 % 1016,4 hPa 0,0 mm 0,0 km/h (0 Bft) E-SE 112 0 min 0 W/m 12,0 C 20,3 C 0,0 km/h (0 Bft)
16/08/2012 23:20 19,9 C 59 % 1016,5 hPa 0,0 mm 0,0 km/h (0 Bft) E 90 0 min 0 W/m 11,6 C 19,9 C 2,9 km/h (1 Bft)
16/08/2012 23:30 19,8 C 62 % 1016,4 hPa 0,0 mm 0,4 km/h (0 Bft) E 90 0 min 0 W/m 12,3 C 19,8 C 0,4 km/h (0 Bft)
_ Min-Heure 06:00 18:40 20:00 - 23:20 - - - - 05:50 06:00 23:10
Minimum _ 11,7 C 33 % 1015,8 hPa - 0,0 km/h (0 Bft) - - - - 9,7 C 11,7 C 0,0 km/h (0 Bft)
_ Max-Heure 18:50 08:40 11:20 10:10 13:20 - - 23:30 23:30 10:10 18:50 16:10
Maximum _ 29,8 C 91 % 1019,6 hPa 0,1 mm 10,4 km/h
E (2 Bft)
- - 0 min 0 W/m 15,7 C 29,8 C 12,2 km/h
O-SO (2 Bft)
Moyenne _ 20,5 C 62 % 1017,7 hPa #0,1 mm 1,6 km/h (1 Bft) E-SE - #0 min. 0 W/m 11,8 C 20,5 C 2,9 km/h (1 Bft)
Saint Bonnet de Bellac- Haute Vienne - France